| time (UTC) | temp C | wind direction | speed KPH | gust KPH | rain 1hr cm | rain 24hr cm | rain mn cm | humidity % | barometer mb |
| 20260506175338 | 12 | 224 | 8.0 | 29.0 | 0.00 | 0.00 | 0.00 | 81 | 1010.9 |
| 20260506174838 | 12 | 338 | 12.9 | 29.0 | 0.00 | 0.00 | 0.00 | 80 | 1010.9 |
| 20260506174337 | 12 | 318 | 12.9 | 25.7 | 0.00 | 0.00 | 0.00 | 80 | 1011.0 |
| 20260506173837 | 12 | 326 | 17.7 | 25.7 | 0.00 | 0.00 | 0.00 | 79 | 1010.7 |
| 20260506173337 | 12 | 309 | 11.3 | 27.4 | 0.00 | 0.00 | 0.00 | 80 | 1010.4 |
| 20260506172837 | 12 | 349 | 11.3 | 29.0 | 0.00 | 0.00 | 0.00 | 78 | 1010.6 |
| 20260506172337 | 12 | 320 | 14.5 | 35.4 | 0.00 | 0.00 | 0.00 | 77 | 1010.5 |
| 20260506171841 | 12 | 287 | 19.3 | 27.4 | 0.00 | 0.00 | 0.00 | 77 | 1010.6 |
| 20260506171336 | 12 | 318 | 14.5 | 27.4 | 0.00 | 0.00 | 0.00 | 76 | 1010.5 |
| 20260506170840 | 12 | 307 | 20.9 | 27.4 | 0.00 | 0.00 | 0.00 | 76 | 1010.6 |
| 20260506170337 | 12 | 317 | 17.7 | 27.4 | 0.00 | 0.00 | 0.00 | 73 | 1010.6 |
| 20260506165837 | 12 | 294 | 17.7 | 29.0 | 0.00 | 0.00 | 0.00 | 74 | 1010.5 |
| 20260506165336 | 12 | 325 | 12.9 | 30.6 | 0.00 | 0.00 | 0.00 | 76 | 1010.4 |
| 20260506164835 | 12 | 312 | 16.1 | 30.6 | 0.00 | 0.00 | 0.00 | 76 | 1010.4 |
| 20260506164335 | 12 | 310 | 20.9 | 27.4 | 0.00 | 0.00 | 0.00 | 76 | 1010.2 |
| 20260506163835 | 13 | 356 | 17.7 | 24.1 | 0.00 | 0.00 | 0.00 | 77 | 1010.2 |
| 20260506163337 | 13 | 305 | 12.9 | 24.1 | 0.00 | 0.00 | 0.00 | 75 | 1010.3 |
| 20260506162836 | 13 | 308 | 9.7 | 29.0 | 0.00 | 0.00 | 0.00 | 76 | 1010.1 |
| 20260506162337 | 13 | 317 | 19.3 | 29.0 | 0.00 | 0.00 | 0.00 | 74 | 1010.1 |
| 20260506161836 | 13 | 325 | 14.5 | 27.4 | 0.00 | 0.00 | 0.00 | 74 | 1010.1 |
| 20260506161555 | 13 | 317 | 11.3 | 30.6 | 0.00 | 0.00 | 0.00 | 78 | 1010.0 |
| 20260506160837 | 13 | 333 | 14.5 | 30.6 | 0.00 | 0.00 | 0.00 | 74 | 1010.1 |
| 20260506160336 | 13 | 303 | 14.5 | 30.6 | 0.00 | 0.00 | 0.00 | 77 | 1010.2 |
| 20260506160116 | 13 | 311 | 20.9 | 30.6 | 0.00 | 0.00 | 0.00 | 77 | 1010.1 |
| 20260506155340 | 13 | 302 | 11.3 | 29.0 | 0.00 | 0.00 | 0.00 | 77 | 1010.0 |
| 20260506154838 | 13 | 329 | 9.7 | 33.8 | 0.00 | 0.00 | 0.00 | 78 | 1010.1 |
| 20260506154336 | 12 | 322 | 14.5 | 33.8 | 0.00 | 0.00 | 0.00 | 79 | 1009.9 |
| 20260506153840 | 12 | 332 | 22.5 | 27.4 | 0.00 | 0.00 | 0.00 | 77 | 1010.1 |
| 20260506153335 | 12 | 321 | 6.4 | 27.4 | 0.00 | 0.00 | 0.00 | 79 | 1010.2 |
| 20260506152836 | 12 | 322 | 14.5 | 27.4 | 0.00 | 0.00 | 0.00 | 79 | 1010.3 |
| 20260506152336 | 12 | 318 | 14.5 | 29.0 | 0.00 | 0.00 | 0.00 | 77 | 1010.3 |
| 20260506151835 | 13 | 296 | 14.5 | 29.0 | 0.00 | 0.00 | 0.00 | 77 | 1010.1 |
| 20260506151337 | 13 | 307 | 12.9 | 27.4 | 0.00 | 0.00 | 0.00 | 79 | 1010.2 |
| 20260506150835 | 13 | 325 | 11.3 | 29.0 | 0.00 | 0.00 | 0.00 | 79 | 1010.1 |
| 20260506150336 | 13 | 317 | 20.9 | 29.0 | 0.00 | 0.00 | 0.00 | 77 | 1010.1 |
| 20260506145839 | 13 | 322 | 11.3 | 27.4 | 0.00 | 0.00 | 0.00 | 79 | 1009.9 |
| 20260506145604 | 13 | 317 | 9.7 | 27.4 | 0.00 | 0.00 | 0.00 | 77 | 1009.9 |
| 20260506144836 | 13 | 324 | 14.5 | 22.5 | 0.00 | 0.00 | 0.00 | 76 | 1010.0 |
| 20260506144338 | 13 | 327 | 14.5 | 22.5 | 0.00 | 0.00 | 0.00 | 78 | 1010.0 |
| 20260506144103 | 13 | 324 | 8.0 | 22.5 | 0.00 | 0.00 | 0.00 | 79 | 1010.0 |
| 20260506143337 | 13 | 318 | 11.3 | 22.5 | 0.00 | 0.00 | 0.00 | 78 | 1009.9 |
| 20260506142835 | 13 | 318 | 17.7 | 25.7 | 0.00 | 0.00 | 0.00 | 79 | 1010.1 |
| 20260506142602 | 13 | 333 | 12.9 | 25.7 | 0.00 | 0.00 | 0.00 | 78 | 1010.0 |
| 20260506141834 | 13 | 325 | 17.7 | 25.7 | 0.00 | 0.00 | 0.00 | 76 | 1010.0 |
| 20260506141338 | 13 | 348 | 14.5 | 29.0 | 0.00 | 0.00 | 0.00 | 78 | 1010.0 |
| 20260506141107 | 13 | 308 | 14.5 | 29.0 | 0.00 | 0.00 | 0.00 | 77 | 1010.1 |
| 20260506140337 | 13 | 304 | 11.3 | 22.5 | 0.00 | 0.00 | 0.00 | 79 | 1010.0 |
| 20260506135836 | 13 | 311 | 12.9 | 22.5 | 0.00 | 0.00 | 0.00 | 78 | 1009.9 |
| 20260506135337 | 13 | 333 | 11.3 | 22.5 | 0.00 | 0.00 | 0.00 | 79 | 1010.2 |
| 20260506134834 | 13 | 340 | 14.5 | 20.9 | 0.00 | 0.00 | 0.00 | 79 | 1010.0 |
| 20260506134336 | 13 | 298 | 8.0 | 22.5 | 0.00 | 0.00 | 0.00 | 80 | 1010.2 |
| 20260506133836 | 12 | 317 | 17.7 | 22.5 | 0.00 | 0.00 | 0.00 | 80 | 1010.1 |
| 20260506133335 | 12 | 336 | 6.4 | 22.5 | 0.00 | 0.00 | 0.00 | 82 | 1010.1 |
| 20260506132836 | 12 | 336 | 12.9 | 22.5 | 0.00 | 0.00 | 0.00 | 80 | 1010.3 |
| 20260506132333 | 12 | 302 | 11.3 | 24.1 | 0.00 | 0.00 | 0.00 | 82 | 1010.4 |
| 20260506132104 | 12 | 315 | 11.3 | 22.5 | 0.00 | 0.00 | 0.00 | 83 | 1010.1 |
| 20260506131336 | 12 | 336 | 8.0 | 24.1 | 0.00 | 0.00 | 0.00 | 82 | 1010.2 |
| 20260506130836 | 12 | 316 | 8.0 | 24.1 | 0.00 | 0.00 | 0.00 | 83 | 1010.1 |
| 20260506130335 | 12 | 339 | 19.3 | 24.1 | 0.00 | 0.00 | 0.00 | 84 | 1010.0 |
| 20260506125336 | 12 | 314 | 11.3 | 22.5 | 0.00 | 0.00 | 0.00 | 83 | 1010.0 |
| 20260506124837 | 12 | 300 | 9.7 | 29.0 | 0.00 | 0.00 | 0.00 | 84 | 1010.0 |
| 20260506124335 | 12 | 298 | 17.7 | 29.0 | 0.00 | 0.00 | 0.00 | 82 | 1009.9 |
| 20260506123835 | 12 | 303 | 6.4 | 17.7 | 0.00 | 0.00 | 0.00 | 81 | 1009.7 |
| 20260506123335 | 13 | 321 | 8.0 | 22.5 | 0.00 | 0.00 | 0.00 | 82 | 1009.9 |
| 20260506122837 | 13 | 315 | 6.4 | 22.5 | 0.00 | 0.00 | 0.00 | 84 | 1010.0 |
| 20260506122336 | 12 | 309 | 4.8 | 25.7 | 0.00 | 0.00 | 0.00 | 83 | 1009.8 |
| 20260506121836 | 13 | 293 | 12.9 | 25.7 | 0.00 | 0.00 | 0.00 | 84 | 1009.9 |
| 20260506121338 | 12 | 327 | 17.7 | 25.7 | 0.00 | 0.00 | 0.00 | 80 | 1009.9 |
| 20260506120836 | 12 | 352 | 9.7 | 22.5 | 0.00 | 0.00 | 0.00 | 82 | 1009.7 |
| 20260506120336 | 12 | 310 | 11.3 | 20.9 | 0.00 | 0.00 | 0.00 | 83 | 1009.7 |
| 20260506115836 | 12 | 319 | 12.9 | 20.9 | 0.00 | 0.00 | 0.00 | 82 | 1009.9 |
| 20260506115605 | 12 | 311 | 6.4 | 17.7 | 0.00 | 0.00 | 0.00 | 85 | 1009.9 |
| 20260506114835 | 12 | 322 | 9.7 | 20.9 | 0.00 | 0.00 | 0.00 | 83 | 1010.0 |
| 20260506114341 | 12 | 305 | 9.7 | 20.9 | 0.00 | 0.00 | 0.00 | 84 | 1009.9 |
| 20260506113838 | 12 | 324 | 11.3 | 17.7 | 0.00 | 0.00 | 0.00 | 84 | 1010.0 |
| 20260506113336 | 12 | 335 | 8.0 | 22.5 | 0.00 | 0.00 | 0.00 | 85 | 1010.0 |
| 20260506112835 | 12 | 337 | 14.5 | 22.5 | 0.00 | 0.00 | 0.00 | 83 | 1009.9 |
| 20260506112335 | 12 | 296 | 11.3 | 20.9 | 0.00 | 0.00 | 0.00 | 81 | 1010.0 |
| 20260506111837 | 12 | 310 | 11.3 | 20.9 | 0.00 | 0.00 | 0.00 | 82 | 1009.9 |
| 20260506111335 | 12 | 337 | 12.9 | 20.9 | 0.00 | 0.00 | 0.00 | 84 | 1009.8 |
| 20260506111104 | 12 | 316 | 9.7 | 24.1 | 0.00 | 0.00 | 0.00 | 85 | 1010.0 |
| 20260506105845 | 12 | 352 | 12.9 | 24.1 | 0.00 | 0.00 | 0.00 | 85 | 1010.0 |
| 20260506105338 | 12 | 350 | 8.0 | 24.1 | 0.00 | 0.00 | 0.00 | 87 | 1009.8 |
| 20260506104836 | 11 | 318 | 11.3 | 24.1 | 0.00 | 0.00 | 0.00 | 89 | 1009.9 |
| 20260506104336 | 11 | 314 | 6.4 | 24.1 | 0.00 | 0.00 | 0.00 | 89 | 1009.8 |
| 20260506103836 | 11 | 345 | 9.7 | 17.7 | 0.00 | 0.00 | 0.00 | 93 | 1009.9 |
| 20260506103337 | 11 | 320 | 8.0 | 17.7 | 0.00 | 0.00 | 0.00 | 91 | 1010.0 |
| 20260506102836 | 10 | 280 | 8.0 | 20.9 | 0.00 | 0.00 | 0.00 | 94 | 1010.0 |
| 20260506102337 | 10 | 305 | 16.1 | 20.9 | 0.00 | 0.00 | 0.00 | 94 | 1010.0 |
| 20260506102105 | 10 | 315 | 14.5 | 17.7 | 0.00 | 0.00 | 0.00 | 94 | 1010.1 |
| 20260506101343 | 10 | 293 | 4.8 | 12.9 | 0.00 | 0.00 | 0.00 | 96 | 1010.0 |
| 20260506100836 | 10 | 306 | 6.4 | 20.9 | 0.00 | 0.00 | 0.00 | 97 | 1010.1 |
| 20260506100338 | 10 | 317 | 3.2 | 20.9 | 0.00 | 0.00 | 0.00 | 97 | 1010.1 |
| 20260506095835 | 9 | 296 | 9.7 | 16.1 | 0.00 | 0.00 | 0.00 | 97 | 1010.2 |
| 20260506095334 | 9 | 6 | 9.7 | 20.9 | 0.00 | 0.00 | 0.00 | 97 | 1010.1 |
| 20260506094835 | 9 | 316 | 9.7 | 20.9 | 0.00 | 0.00 | 0.00 | 97 | 1010.0 |
| 20260506094334 | 9 | 324 | 11.3 | 20.9 | 0.00 | 0.00 | 0.00 | 97 | 1010.1 |
| 20260506093338 | 9 | 317 | 14.5 | 17.7 | 0.00 | 0.00 | 0.00 | 96 | 1010.1 |
| 20260506093100 | 9 | 345 | 8.0 | 17.7 | 0.00 | 0.00 | 0.00 | 97 | 1010.1 |
| 20260506092337 | 9 | 354 | 11.3 | 17.7 | 0.00 | 0.00 | 0.00 | 97 | 1009.8 |
| 20260506091838 | 9 | 312 | 6.4 | 17.7 | 0.00 | 0.00 | 0.00 | 97 | 1009.9 |
| 20260506091607 | 9 | 323 | 9.7 | 20.9 | 0.00 | 0.00 | 0.00 | 97 | 1009.8 |
| 20260506090838 | 9 | 324 | 9.7 | 20.9 | 0.00 | 0.00 | 0.00 | 97 | 1010.0 |
| 20260506090337 | 9 | 319 | 12.9 | 20.9 | 0.00 | 0.00 | 0.00 | 97 | 1009.6 |
| 20260506085837 | 9 | 347 | 9.7 | 14.5 | 0.00 | 0.00 | 0.00 | 97 | 1009.8 |
| 20260506085338 | 9 | 351 | 8.0 | 16.1 | 0.00 | 0.00 | 0.00 | 97 | 1009.6 |
| 20260506084839 | 9 | 334 | 3.2 | 20.9 | 0.00 | 0.00 | 0.00 | 97 | 1009.6 |
| 20260506084337 | 9 | 346 | 8.0 | 22.5 | 0.00 | 0.00 | 0.00 | 97 | 1009.6 |
| 20260506083838 | 9 | 352 | 16.1 | 24.1 | 0.00 | 0.00 | 0.00 | 97 | 1009.6 |
| 20260506083345 | 9 | 333 | 11.3 | 24.1 | 0.00 | 0.00 | 0.00 | 97 | 1009.4 |
| 20260506082908 | 9 | 355 | 12.9 | 22.5 | 0.00 | 0.00 | 0.00 | 96 | 1009.5 |
| 20260506082337 | 9 | 340 | 6.4 | 20.9 | 0.00 | 0.00 | 0.00 | 96 | 1009.6 |
| 20260506081837 | 9 | 348 | 11.3 | 25.7 | 0.00 | 0.00 | 0.00 | 96 | 1009.4 |
| 20260506081553 | 9 | 334 | 8.0 | 25.7 | 0.00 | 0.00 | 0.00 | 96 | 1009.5 |
| 20260506080837 | 9 | 320 | 9.7 | 24.1 | 0.00 | 0.00 | 0.00 | 95 | 1009.4 |
| 20260506080337 | 9 | 348 | 14.5 | 24.1 | 0.00 | 0.00 | 0.00 | 94 | 1009.5 |
| 20260506073338 | 10 | 325 | 12.9 | 22.5 | 0.00 | 0.00 | 0.00 | 90 | 1009.1 |
| 20260506073053 | 10 | 341 | 17.7 | 22.5 | 0.00 | 0.00 | 0.00 | 90 | 1009.2 |
| 20260506072334 | 10 | 336 | 8.0 | 27.4 | 0.00 | 0.00 | 0.00 | 89 | 1009.0 |
| 20260506071835 | 10 | 312 | 16.1 | 27.4 | 0.00 | 0.00 | 0.00 | 89 | 1009.0 |
| 20260506071338 | 10 | 333 | 17.7 | 24.1 | 0.00 | 0.00 | 0.00 | 89 | 1009.0 |
| 20260506070832 | 10 | 345 | 9.7 | 22.5 | 0.00 | 0.00 | 0.00 | 90 | 1009.0 |
| 20260506070554 | 10 | 335 | 19.3 | 22.5 | 0.00 | 0.00 | 0.00 | 90 | 1009.0 |
| 20260506062335 | 8 | 308 | 14.5 | 20.9 | 0.00 | 0.00 | 0.00 | 91 | 1009.1 |
| 20260506062101 | 8 | 317 | 8.0 | 20.9 | 0.00 | 0.00 | 0.00 | 91 | 1008.9 |
| 20260506061335 | 8 | 311 | 9.7 | 20.9 | 0.00 | 0.00 | 0.00 | 90 | 1008.9 |
| 20260506060834 | 8 | 333 | 8.0 | 20.9 | 0.00 | 0.00 | 0.00 | 91 | 1008.8 |
| 20260506060334 | 8 | 322 | 6.4 | 22.5 | 0.00 | 0.00 | 0.00 | 91 | 1008.7 |
| 20260506051337 | 8 | 332 | 8.0 | 17.7 | 0.00 | 0.00 | 0.00 | 89 | 1008.8 |
| 20260506050833 | 8 | 311 | 11.3 | 17.7 | 0.00 | 0.00 | 0.00 | 89 | 1008.7 |
| 20260506050322 | 8 | 321 | 12.9 | 17.7 | 0.00 | 0.00 | 0.00 | 89 | 1008.9 |
| 20260506045100 | 7 | 348 | 9.7 | 20.9 | 0.00 | 0.00 | 0.00 | 90 | 1008.8 |
| 20260506044331 | 7 | 338 | 6.4 | 20.9 | 0.00 | 0.00 | 0.00 | 90 | 1008.9 |
| 20260506043815 | 7 | 347 | 9.7 | 16.1 | 0.00 | 0.00 | 0.00 | 90 | 1008.8 |
| 20260506043319 | 7 | 309 | 9.7 | 16.1 | 0.00 | 0.00 | 0.00 | 90 | 1008.9 |
| 20260506042813 | 7 | 310 | 11.3 | 20.9 | 0.00 | 0.00 | 0.00 | 90 | 1008.7 |
| 20260506042311 | 7 | 13 | 12.9 | 17.7 | 0.00 | 0.00 | 0.00 | 90 | 1008.7 |
| 20260506041812 | 7 | 309 | 9.7 | 17.7 | 0.00 | 0.00 | 0.00 | 90 | 1008.7 |
| 20260506041310 | 7 | 311 | 9.7 | 17.7 | 0.00 | 0.00 | 0.00 | 90 | 1008.7 |
| 20260506041049 | 7 | 316 | 6.4 | 17.7 | 0.00 | 0.00 | 0.00 | 90 | 1008.8 |
| 20260506040539 | 7 | 318 | 8.0 | 17.7 | 0.00 | 0.00 | 0.00 | 90 | 1008.8 |
| 20260506035813 | 7 | 348 | 8.0 | 17.7 | 0.00 | 0.00 | 0.00 | 90 | 1009.0 |
| 20260506035308 | 7 | 331 | 11.3 | 16.1 | 0.00 | 0.00 | 0.00 | 90 | 1008.8 |
| 20260506034812 | 7 | 327 | 8.0 | 16.1 | 0.00 | 0.00 | 0.00 | 90 | 1009.0 |
| 20260506034310 | 7 | 321 | 9.7 | 16.1 | 0.00 | 0.00 | 0.00 | 90 | 1008.9 |
| 20260506033816 | 7 | 297 | 11.3 | 17.7 | 0.00 | 0.00 | 0.00 | 90 | 1009.0 |
| 20260506033310 | 7 | 353 | 8.0 | 17.7 | 0.00 | 0.00 | 0.00 | 90 | 1008.9 |
| 20260506032809 | 7 | 344 | 12.9 | 17.7 | 0.00 | 0.00 | 0.00 | 90 | 1009.0 |
| 20260506031809 | 7 | 337 | 9.7 | 16.1 | 0.00 | 0.00 | 0.00 | 90 | 1009.0 |
| 20260506031310 | 7 | 310 | 9.7 | 20.9 | 0.00 | 0.00 | 0.00 | 90 | 1009.0 |
| 20260506030805 | 7 | 314 | 8.0 | 20.9 | 0.00 | 0.00 | 0.00 | 91 | 1009.0 |
| 20260506030307 | 7 | 322 | 8.0 | 16.1 | 0.00 | 0.00 | 0.00 | 90 | 1009.1 |
| 20260506025806 | 7 | 319 | 6.4 | 16.1 | 0.00 | 0.00 | 0.00 | 90 | 1009.1 |
| 20260506025307 | 7 | 0 | 8.0 | 14.5 | 0.00 | 0.00 | 0.00 | 90 | 1009.0 |
| 20260506024805 | 7 | 317 | 8.0 | 14.5 | 0.00 | 0.00 | 0.00 | 90 | 1009.1 |
| 20260506024533 | 7 | 341 | 8.0 | 17.7 | 0.00 | 0.00 | 0.00 | 90 | 1009.3 |
| 20260506023805 | 7 | 343 | 11.3 | 17.7 | 0.00 | 0.00 | 0.00 | 89 | 1009.1 |
| 20260506023532 | 7 | 359 | 6.4 | 17.7 | 0.00 | 0.00 | 0.00 | 89 | 1009.2 |
| 20260506022806 | 8 | 324 | 11.3 | 24.1 | 0.00 | 0.00 | 0.00 | 89 | 1009.2 |
| 20260506022306 | 8 | 334 | 11.3 | 24.1 | 0.00 | 0.00 | 0.00 | 88 | 1009.0 |
| 20260506021805 | 8 | 342 | 11.3 | 27.4 | 0.00 | 0.00 | 0.00 | 88 | 1009.3 |
| 20260506021305 | 8 | 318 | 9.7 | 27.4 | 0.00 | 0.00 | 0.00 | 88 | 1009.1 |
| 20260506020759 | 8 | 349 | 11.3 | 24.1 | 0.00 | 0.00 | 0.00 | 88 | 1009.0 |
| 20260506020300 | 8 | 346 | 17.7 | 24.1 | 0.00 | 0.00 | 0.00 | 88 | 1009.1 |
| 20260506015758 | 8 | 348 | 14.5 | 29.0 | 0.00 | 0.00 | 0.00 | 88 | 1009.1 |
| 20260506015258 | 8 | 340 | 11.3 | 29.0 | 0.00 | 0.00 | 0.00 | 88 | 1009.0 |
| 20260506014805 | 8 | 342 | 9.7 | 22.5 | 0.00 | 0.00 | 0.00 | 88 | 1009.2 |
| 20260506014258 | 8 | 302 | 8.0 | 22.5 | 0.00 | 0.00 | 0.00 | 88 | 1009.1 |
| 20260506013801 | 8 | 341 | 11.3 | 20.9 | 0.00 | 0.00 | 0.00 | 88 | 1009.3 |
| 20260506013300 | 8 | 317 | 9.7 | 20.9 | 0.00 | 0.00 | 0.00 | 88 | 1009.1 |
| 20260506012759 | 8 | 338 | 12.9 | 20.9 | 0.00 | 0.00 | 0.00 | 88 | 1009.3 |
| 20260506012258 | 8 | 351 | 11.3 | 20.9 | 0.00 | 0.00 | 0.00 | 88 | 1009.2 |
| 20260506011759 | 8 | 349 | 9.7 | 25.7 | 0.00 | 0.00 | 0.00 | 88 | 1009.2 |
| 20260506011300 | 8 | 353 | 17.7 | 25.7 | 0.00 | 0.00 | 0.00 | 88 | 1009.1 |
| 20260506010759 | 8 | 311 | 9.7 | 22.5 | 0.00 | 0.00 | 0.00 | 89 | 1009.3 |
| 20260506010306 | 8 | 348 | 14.5 | 24.1 | 0.00 | 0.00 | 0.00 | 89 | 1009.4 |
| 20260506010017 | 8 | 348 | 9.7 | 24.1 | 0.00 | 0.00 | 0.00 | 89 | 1009.3 |
| 20260506005519 | 8 | 338 | 11.3 | 24.1 | 0.00 | 0.00 | 0.00 | 89 | 1009.2 |
| 20260506005026 | 8 | 329 | 11.3 | 20.9 | 0.00 | 0.00 | 0.00 | 89 | 1009.1 |
| 20260506003800 | 8 | 337 | 11.3 | 24.1 | 0.00 | 0.00 | 0.00 | 89 | 1009.3 |
| 20260506003259 | 8 | 339 | 14.5 | 24.1 | 0.00 | 0.00 | 0.00 | 89 | 1009.5 |
| 20260506002800 | 8 | 341 | 16.1 | 25.7 | 0.00 | 0.00 | 0.00 | 88 | 1009.3 |
| 20260506002258 | 8 | 319 | 9.7 | 27.4 | 0.00 | 0.00 | 0.00 | 89 | 1009.5 |
| 20260506002023 | 8 | 342 | 16.1 | 27.4 | 0.00 | 0.00 | 0.00 | 89 | 1009.5 |
| 20260506001302 | 8 | 351 | 14.5 | 24.1 | 0.00 | 0.00 | 0.00 | 90 | 1009.5 |
| 20260506000803 | 8 | 350 | 16.1 | 24.1 | 0.00 | 0.00 | 0.00 | 90 | 1009.3 |
| 20260506000513 | 8 | 336 | 16.1 | 24.1 | 0.00 | 0.00 | 0.00 | 90 | 1009.4 |
| 20260506000018 | 8 | 354 | 14.5 | 22.5 | 0.00 | 0.00 | 0.00 | 90 | 1009.7 |
| 20260505235259 | 9 | 353 | 14.5 | 22.5 | 0.00 | 0.00 | 0.00 | 91 | 1009.5 |
| 20260505234800 | 9 | 337 | 9.7 | 22.5 | 0.00 | 0.00 | 0.00 | 91 | 1009.7 |
| 20260505234301 | 9 | 349 | 12.9 | 17.7 | 0.00 | 0.00 | 0.00 | 91 | 1009.6 |
| 20260505234023 | 9 | 344 | 9.7 | 16.1 | 0.00 | 0.00 | 0.00 | 91 | 1009.5 |
| 20260505233300 | 9 | 314 | 8.0 | 20.9 | 0.00 | 0.00 | 0.00 | 91 | 1009.6 |
| 20260505232757 | 9 | 350 | 11.3 | 20.9 | 0.00 | 0.00 | 0.00 | 91 | 1009.6 |
| 20260505232530 | 9 | 346 | 9.7 | 22.5 | 0.00 | 0.00 | 0.00 | 91 | 1009.7 |
| 20260505231759 | 9 | 345 | 9.7 | 22.5 | 0.00 | 0.00 | 0.00 | 91 | 1009.6 |
| 20260505231300 | 9 | 328 | 9.7 | 16.1 | 0.00 | 0.00 | 0.00 | 91 | 1009.6 |
| 20260505230759 | 9 | 345 | 12.9 | 16.1 | 0.00 | 0.00 | 0.00 | 91 | 1009.8 |
| 20260505230259 | 9 | 347 | 9.7 | 16.1 | 0.00 | 0.00 | 0.00 | 91 | 1009.6 |
| 20260505230017 | 9 | 359 | 12.9 | 17.7 | 0.00 | 0.00 | 0.00 | 91 | 1009.8 |
| 20260505225259 | 9 | 350 | 9.7 | 17.7 | 0.00 | 0.00 | 0.00 | 90 | 1009.7 |
| 20260505225019 | 9 | 343 | 12.9 | 17.7 | 0.00 | 0.00 | 0.00 | 91 | 1009.6 |
| 20260505224528 | 9 | 345 | 9.7 | 17.7 | 0.00 | 0.00 | 0.00 | 91 | 1009.8 |
| 20260505224018 | 9 | 337 | 6.4 | 17.7 | 0.00 | 0.00 | 0.00 | 90 | 1009.7 |
| 20260505223258 | 9 | 341 | 8.0 | 17.7 | 0.00 | 0.00 | 0.00 | 90 | 1009.8 |
| 20260505222800 | 9 | 341 | 9.7 | 17.7 | 0.00 | 0.00 | 0.00 | 90 | 1009.6 |
| 20260505222258 | 9 | 337 | 9.7 | 16.1 | 0.00 | 0.00 | 0.00 | 90 | 1009.7 |
| 20260505221759 | 9 | 344 | 11.3 | 17.7 | 0.00 | 0.00 | 0.00 | 90 | 1009.8 |
| 20260505221302 | 9 | 346 | 9.7 | 17.7 | 0.00 | 0.00 | 0.00 | 90 | 1009.8 |
| 20260505220758 | 9 | 349 | 11.3 | 17.7 | 0.00 | 0.00 | 0.00 | 90 | 1009.9 |
| 20260505220300 | 9 | 340 | 11.3 | 17.7 | 0.00 | 0.00 | 0.00 | 90 | 1009.6 |
| 20260505215800 | 10 | 357 | 12.9 | 17.7 | 0.00 | 0.00 | 0.00 | 89 | 1009.9 |
| 20260505215528 | 10 | 354 | 12.9 | 20.9 | 0.00 | 0.00 | 0.00 | 89 | 1009.9 |
| 20260505214800 | 10 | 351 | 9.7 | 20.9 | 0.00 | 0.00 | 0.00 | 89 | 1009.8 |
| 20260505214259 | 10 | 323 | 12.9 | 22.5 | 0.00 | 0.00 | 0.00 | 89 | 1009.8 |
| 20260505213758 | 10 | 352 | 11.3 | 22.5 | 0.00 | 0.00 | 0.00 | 89 | 1009.9 |
| 20260505213301 | 10 | 0 | 14.5 | 24.1 | 0.00 | 0.00 | 0.00 | 88 | 1009.9 |
| 20260505212758 | 10 | 346 | 17.7 | 24.1 | 0.00 | 0.00 | 0.00 | 88 | 1009.5 |
| 20260505212258 | 10 | 359 | 16.1 | 29.0 | 0.00 | 0.00 | 0.00 | 88 | 1009.8 |
| 20260505211800 | 10 | 331 | 9.7 | 29.0 | 0.00 | 0.00 | 0.00 | 87 | 1009.9 |
| 20260505211259 | 10 | 339 | 14.5 | 24.1 | 0.00 | 0.00 | 0.00 | 88 | 1009.8 |
| 20260505210759 | 10 | 352 | 14.5 | 27.4 | 0.00 | 0.00 | 0.00 | 88 | 1009.9 |
| 20260505210258 | 10 | 354 | 17.7 | 27.4 | 0.00 | 0.00 | 0.00 | 88 | 1009.8 |
| 20260505205759 | 10 | 343 | 14.5 | 27.4 | 0.00 | 0.00 | 0.00 | 87 | 1009.8 |
| 20260505205525 | 10 | 348 | 19.3 | 24.1 | 0.00 | 0.00 | 0.00 | 87 | 1009.7 |
| 20260505205016 | 10 | 333 | 17.7 | 25.7 | 0.00 | 0.00 | 0.00 | 87 | 1009.8 |
| 20260505204517 | 10 | 350 | 16.1 | 25.7 | 0.00 | 0.00 | 0.00 | 87 | 1009.7 |
| 20260505203802 | 10 | 349 | 9.7 | 25.7 | 0.00 | 0.00 | 0.00 | 87 | 1009.8 |
| 20260505202758 | 10 | 339 | 12.9 | 22.5 | 0.00 | 0.00 | 0.00 | 86 | 1009.8 |
| 20260505202258 | 10 | 344 | 17.7 | 27.4 | 0.00 | 0.00 | 0.00 | 86 | 1009.9 |
| 20260505201759 | 10 | 345 | 11.3 | 27.4 | 0.00 | 0.00 | 0.00 | 86 | 1009.7 |
| 20260505200758 | 10 | 346 | 17.7 | 24.1 | 0.00 | 0.00 | 0.00 | 86 | 1009.7 |
| 20260505200300 | 10 | 336 | 9.7 | 29.0 | 0.00 | 0.00 | 0.00 | 86 | 1009.7 |
| 20260505195804 | 11 | 357 | 16.1 | 29.0 | 0.00 | 0.00 | 0.00 | 85 | 1009.5 |
| 20260505195305 | 11 | 333 | 12.9 | 24.1 | 0.00 | 0.00 | 0.00 | 85 | 1009.6 |
| 20260505194800 | 11 | 358 | 19.3 | 24.1 | 0.00 | 0.00 | 0.00 | 85 | 1009.6 |
| 20260505194300 | 11 | 355 | 17.7 | 33.8 | 0.00 | 0.00 | 0.00 | 85 | 1009.4 |
| 20260505193800 | 11 | 331 | 14.5 | 33.8 | 0.00 | 0.00 | 0.00 | 84 | 1009.4 |
| 20260505193258 | 11 | 0 | 16.1 | 33.8 | 0.00 | 0.00 | 0.00 | 84 | 1009.2 |
| 20260505192758 | 11 | 358 | 12.9 | 33.8 | 0.00 | 0.00 | 0.00 | 84 | 1009.1 |
| 20260505192301 | 11 | 341 | 16.1 | 29.0 | 0.00 | 0.00 | 0.00 | 84 | 1009.1 |
| 20260505191758 | 11 | 341 | 16.1 | 29.0 | 0.00 | 0.00 | 0.00 | 84 | 1009.2 |
| 20260505191531 | 11 | 345 | 17.7 | 24.1 | 0.00 | 0.00 | 0.00 | 84 | 1009.2 |
| 20260505190807 | 11 | 352 | 14.5 | 25.7 | 0.00 | 0.00 | 0.00 | 84 | 1009.1 |
| 20260505190259 | 11 | 359 | 14.5 | 29.0 | 0.00 | 0.00 | 0.00 | 83 | 1009.3 |
| 20260505190027 | 11 | 357 | 14.5 | 29.0 | 0.00 | 0.00 | 0.00 | 83 | 1009.3 |
| 20260505185258 | 11 | 343 | 11.3 | 25.7 | 0.00 | 0.00 | 0.00 | 83 | 1009.1 |
| 20260505184759 | 11 | 327 | 17.7 | 24.1 | 0.00 | 0.00 | 0.00 | 83 | 1009.1 |
| 20260505184256 | 11 | 342 | 16.1 | 24.1 | 0.00 | 0.00 | 0.00 | 84 | 1009.3 |
| 20260505183259 | 12 | 1 | 9.7 | 29.0 | 0.00 | 0.00 | 0.00 | 83 | 1009.1 |
| 20260505182258 | 12 | 342 | 11.3 | 29.0 | 0.00 | 0.00 | 0.00 | 83 | 1009.2 |
| 20260505181759 | 12 | 328 | 19.3 | 29.0 | 0.00 | 0.00 | 0.00 | 82 | 1009.0 |
| 20260505181304 | 12 | 17 | 17.7 | 29.0 | 0.00 | 0.00 | 0.00 | 82 | 1009.0 |
| 20260505180754 | 12 | 348 | 17.7 | 30.6 | 0.00 | 0.00 | 0.00 | 82 | 1009.1 |
| 20260505180245 | 12 | 351 | 11.3 | 38.6 | 0.00 | 0.00 | 0.00 | 82 | 1009.1 |
| 20260505175746 | 12 | 358 | 17.7 | 38.6 | 0.00 | 0.00 | 0.00 | 81 | 1009.0 |